Terminal Aerodrome Forecast
Issued by NWS Paducah, KY

Home | Current Version | Previous Version | Text Only | Print | Product List | Glossary On
Versions: 1 2 3 4 5 6 7 8 9 10 11 12 13 14 15 16 17 18 19 20
000
FTUS43 KPAH 242340
TAFEVV
TAF
KEVV 242340Z 2500/2524 10009KT P6SM OVC090
     FM250700 20012G19KT P6SM -SHRA SCT020 BKN040
     FM251200 22007KT P6SM FEW050 BKN250=

USA.gov is the U.S. government's official web portal to all federal, state and local government web resources and services.